| time (UTC) | temp F | wind direction | speed knots | gust knots | rain 1hr in | rain 24hr in | rain mn in | humidity % | barometer mb |
| 20260504034511 | 55 | 125 | 0.0 | 0.0 | 0.00 | 0.03 | 0.03 | 69 | 1006.0 |
| 20260504033018 | 56 | 126 | 0.0 | 0.9 | 0.00 | 0.03 | 0.03 | 66 | 1006.1 |
| 20260504031520 | 57 | 125 | 0.0 | 0.9 | 0.00 | 0.03 | 0.03 | 64 | 1006.1 |
| 20260504030016 | 58 | 125 | 0.0 | 0.9 | 0.00 | 0.03 | 0.03 | 63 | 1006.0 |
| 20260504024519 | 58 | 105 | 0.0 | 0.9 | 0.00 | 0.03 | 0.03 | 62 | 1006.0 |
| 20260504023018 | 60 | 105 | 0.0 | 0.9 | 0.00 | 0.03 | 0.03 | 59 | 1005.8 |
| 20260504021520 | 61 | 86 | 0.0 | 1.7 | 0.00 | 0.03 | 0.03 | 57 | 1005.7 |
| 20260504020021 | 62 | 178 | 0.0 | 0.0 | 0.00 | 0.03 | 0.03 | 54 | 1005.7 |
| 20260504014519 | 63 | 178 | 0.0 | 3.5 | 0.00 | 0.03 | 0.03 | 51 | 1005.4 |
| 20260504013016 | 64 | 150 | 0.0 | 0.9 | 0.00 | 0.03 | 0.03 | 50 | 1005.4 |
| 20260504011514 | 65 | 221 | 0.0 | 3.5 | 0.00 | 0.03 | 0.03 | 48 | 1005.4 |
| 20260504010019 | 66 | 210 | 0.9 | 3.5 | 0.00 | 0.03 | 0.03 | 46 | 1005.1 |
| 20260504004509 | 67 | 119 | 0.9 | 4.3 | 0.00 | 0.03 | 0.03 | 44 | 1005.2 |
| 20260504003007 | 68 | 219 | 0.0 | 1.7 | 0.00 | 0.03 | 0.03 | 42 | 1005.2 |
| 20260504001508 | 69 | 176 | 0.0 | 1.7 | 0.00 | 0.03 | 0.03 | 40 | 1005.2 |
| 20260504000016 | 70 | 197 | 0.9 | 2.6 | 0.00 | 0.03 | 0.03 | 37 | 1005.2 |
| 20260503234522 | 72 | 236 | 0.0 | 5.2 | 0.00 | 0.03 | 0.03 | 36 | 1005.2 |
| 20260503233004 | 73 | 252 | 0.9 | 4.3 | 0.00 | 0.03 | 0.03 | 35 | 1005.2 |
| 20260503231511 | 73 | 286 | 0.9 | 7.0 | 0.00 | 0.03 | 0.03 | 35 | 1005.4 |
| 20260503230015 | 74 | 343 | 1.7 | 5.2 | 0.00 | 0.03 | 0.03 | 37 | 1005.6 |
| 20260503224516 | 74 | 238 | 0.9 | 5.2 | 0.00 | 0.03 | 0.03 | 36 | 1005.6 |
| 20260503223021 | 73 | 218 | 1.7 | 7.8 | 0.00 | 0.03 | 0.03 | 36 | 1005.7 |
| 20260503221506 | 72 | 167 | 1.7 | 6.1 | 0.00 | 0.03 | 0.03 | 37 | 1005.8 |
| 20260503220010 | 72 | 59 | 3.5 | 11.3 | 0.00 | 0.03 | 0.03 | 37 | 1005.8 |
| 20260503214534 | 72 | 214 | 1.7 | 6.1 | 0.00 | 0.03 | 0.03 | 37 | 1005.9 |
| 20260503213019 | 72 | 164 | 2.6 | 9.6 | 0.00 | 0.03 | 0.03 | 39 | 1006.1 |
| 20260503211523 | 71 | 253 | 1.7 | 9.6 | 0.00 | 0.03 | 0.03 | 39 | 1006.4 |
| 20260503210008 | 70 | 213 | 1.7 | 7.8 | 0.00 | 0.03 | 0.03 | 38 | 1006.6 |
| 20260503204512 | 71 | 281 | 1.7 | 6.1 | 0.00 | 0.03 | 0.03 | 42 | 1006.7 |
| 20260503203016 | 70 | 293 | 4.3 | 9.6 | 0.00 | 0.03 | 0.03 | 38 | 1006.9 |
| 20260503201520 | 70 | 33 | 2.6 | 8.7 | 0.00 | 0.03 | 0.03 | 41 | 1007.0 |
| 20260503200034 | 68 | 274 | 3.5 | 10.4 | 0.00 | 0.03 | 0.03 | 42 | 1007.3 |
| 20260503194510 | 68 | 292 | 2.6 | 9.6 | 0.00 | 0.03 | 0.03 | 42 | 1007.6 |
| 20260503193015 | 67 | 227 | 3.5 | 9.6 | 0.00 | 0.03 | 0.03 | 41 | 1007.9 |
| 20260503191519 | 68 | 32 | 3.5 | 9.6 | 0.00 | 0.03 | 0.03 | 42 | 1008.1 |
| 20260503190023 | 67 | 40 | 3.5 | 10.4 | 0.00 | 0.03 | 0.03 | 41 | 1008.5 |
| 20260503184538 | 66 | 294 | 2.6 | 7.8 | 0.00 | 0.03 | 0.03 | 41 | 1008.5 |
| 20260503183028 | 64 | 165 | 0.9 | 9.6 | 0.00 | 0.03 | 0.03 | 54 | 1008.6 |
| 20260503181515 | 63 | 302 | 3.5 | 13.9 | 0.00 | 0.03 | 0.03 | 54 | 1009.0 |
| 20260503180040 | 62 | 326 | 1.7 | 9.6 | 0.00 | 0.03 | 0.03 | 55 | 1009.2 |
| 20260503174531 | 60 | 345 | 2.6 | 11.3 | 0.00 | 0.03 | 0.03 | 54 | 1009.3 |
| 20260503173038 | 61 | 141 | 2.6 | 8.7 | 0.00 | 0.03 | 0.03 | 52 | 1009.4 |
| 20260503171528 | 61 | 299 | 2.6 | 7.8 | 0.00 | 0.03 | 0.03 | 50 | 1009.7 |
| 20260503081537 | 44 | 119 | 0.0 | 0.9 | 0.00 | 0.00 | 0.00 | 60 | 1014.1 |
| 20260503071507 | 44 | 163 | 0.0 | 0.9 | 0.00 | 0.00 | 0.00 | 60 | 1014.3 |
| 20260503054516 | 44 | 129 | 0.0 | 0.9 | 0.00 | 0.00 | 0.00 | 60 | 1015.0 |
| 20260503053020 | 44 | 319 | 0.0 | 0.9 | 0.00 | 0.00 | 0.00 | 60 | 1015.0 |
| 20260503051532 | 43 | 160 | 0.0 | 0.9 | 0.00 | 0.00 | 0.00 | 61 | 1015.1 |
| 20260503050024 | 43 | 167 | 0.0 | 0.0 | 0.00 | 0.00 | 0.00 | 62 | 1015.2 |
| 20260503044507 | 43 | 169 | 0.0 | 0.0 | 0.00 | 0.00 | 0.00 | 62 | 1015.3 |
| 20260503043015 | 43 | 168 | 0.0 | 0.0 | 0.00 | 0.00 | 0.00 | 63 | 1015.4 |
| 20260503041519 | 44 | 168 | 0.0 | 0.0 | 0.00 | 0.00 | 0.00 | 62 | 1015.5 |
| 20260503040025 | 44 | 168 | 0.0 | 0.0 | 0.00 | 0.00 | 0.00 | 61 | 1015.6 |